Location: Unspecified
(49.2170°N, 0.0000°E)
Time: 13:39:43
(UTC+00:00)

Vanguard 3 - Pass Details

Date: 26 January 2021
Orbit: 508 x 3261 km, 33.3° (Epoch: 28 February)

Event Time Altitude Azimuth Distance (km) Brightness Sun altitude
Rises 03:52:35 0° 228° (SW) 3,415 - -36.7°
Reaches altitude 10° 03:55:08 10° 214° (SW) 2,761 - -36.3°
Exits shadow 04:00:00 25° 167° (SSE) 2,383 9.4 -35.5°
Maximum altitude 04:00:33 25° 161° (SSE) 2,431 9.5 -35.4°
Drops below altitude 10° 04:08:42 10° 113° (ESE) 4,314 11.4 -34.1°
Sets 04:13:56 0° 103° (ESE) 5,843 12.4 -33.3°
